Date String (YYYY-MM-DD hh:mm:ss) UTC,Instrument flags,Ambient pressure (hPa),Sample flow (lpm),Bypass flow (lpm),Sample temperature (°C),Ambient temperature (°C),ASC tube jacket temperature (°C),LED temperature (°C),Box temperature (°C),Sample RH (%),Span deviation,Mass concentration (μg/m³),Mass concentration (μg/m³),Mass concentration (μg/m³)
DateTimeUTC,F1_M11,P_M11,Q1_M11,Q2_M11,T1_M11,T2_M11,T3_M11,T4_M11,T5_M11,U1_M11,ZSPAN_M11,X0_M11,X2_M11,X1_M11
2021-12-02 12:00:00,,0828.3,5.00,0.00,29.4,28.5,00.0,38.4,31.2,07.9,0000.0,0005.72,0000.85,0000.29
2021-12-02 12:01:00,,0828.2,5.00,0.00,29.4,28.5,00.0,38.4,31.2,07.9,0000.0,0005.81,0000.87,0000.28
2021-12-02 12:02:00,,0828.2,4.99,0.00,29.4,28.5,00.0,38.4,31.2,07.8,0000.0,0005.94,0000.91,0000.28
2021-12-02 12:03:00,,0828.2,5.00,0.00,29.4,28.5,00.0,38.4,31.2,07.7,0000.0,0006.08,0000.93,0000.28
2021-12-02 12:04:00,,0828.1,5.00,0.00,29.4,28.5,00.0,38.4,31.2,07.8,0000.0,0006.25,0000.97,0000.28
2021-12-02 12:05:00,,0828.3,5.00,0.00,29.4,28.5,00.0,38.4,31.1,07.9,0000.0,0006.31,0001.00,0000.29
2021-12-02 12:06:00,,0828.1,4.99,0.00,29.4,28.5,00.0,38.4,31.1,07.8,0000.0,0005.62,0000.93,0000.29
2021-12-02 12:07:00,,0828.2,5.00,0.00,29.4,28.5,00.0,38.4,31.2,07.8,0000.0,0005.43,0000.89,0000.29
2021-12-02 12:08:00,,0828.2,5.01,0.00,29.4,28.5,00.0,38.4,31.2,07.7,0000.0,0004.42,0000.80,0000.30
2021-12-02 12:09:00,,0828.2,4.99,0.00,29.4,28.5,00.0,38.4,31.1,07.6,0000.0,0003.95,0000.77,0000.29
2021-12-02 12:10:00,,0828.1,5.01,0.00,29.4,28.5,00.0,38.4,31.1,07.6,0000.0,0003.80,0000.74,0000.28
2021-12-02 12:11:00,,0828.1,5.01,0.00,29.4,28.5,00.0,38.4,31.1,07.6,0000.0,0002.64,0000.67,0000.28
2021-12-02 12:12:00,,0828.2,5.00,0.00,29.4,28.5,00.0,38.4,31.1,07.7,0000.0,0001.75,0000.60,0000.27
2021-12-02 12:13:00,,0828.1,5.00,0.00,29.4,28.4,00.0,38.4,31.1,07.6,0000.0,0002.70,0000.54,0000.27
2021-12-02 12:14:00,,0828.2,5.00,0.00,29.4,28.5,00.0,38.4,31.1,07.6,0000.0,0002.52,0000.51,0000.27
2021-12-02 12:15:00,,0828.1,5.01,0.00,29.4,28.4,00.0,38.4,31.1,07.6,0000.0,0002.47,0000.51,0000.27
2021-12-02 12:16:00,,0828.2,5.00,0.00,29.4,28.4,00.0,38.4,31.1,07.6,0000.0,0002.60,0000.48,0000.26
2021-12-02 12:17:00,,0828.2,5.00,0.00,29.4,28.4,00.0,38.4,31.1,07.6,0000.0,0002.68,0000.50,0000.26
2021-12-02 12:18:00,,0828.2,5.02,0.00,29.4,28.4,00.0,38.4,31.1,07.8,0000.0,0002.87,0000.50,0000.25
2021-12-02 12:19:00,,0828.2,4.99,0.00,29.4,28.4,00.0,38.4,31.1,07.8,0000.0,0003.03,0000.51,0000.24
2021-12-02 12:20:00,,0828.2,5.00,0.00,29.4,28.4,00.0,38.4,31.1,07.8,0000.0,0003.07,0000.53,0000.25
2021-12-02 12:21:00,,0828.2,5.01,0.00,29.4,28.4,00.0,38.4,31.1,07.9,0000.0,0003.93,0000.57,0000.25
2021-12-02 12:22:00,,0828.2,4.99,0.00,29.4,28.4,00.0,38.4,31.1,07.9,0000.0,0004.22,0000.61,0000.27
2021-12-02 12:23:00,,0828.2,5.01,0.00,29.4,28.4,00.0,38.4,31.1,07.8,0000.0,0004.21,0000.64,0000.28
2021-12-02 12:24:00,,0828.2,4.99,0.00,29.4,28.4,00.0,38.4,31.1,07.9,0000.0,0004.18,0000.71,0000.28
2021-12-02 12:25:00,,0828.2,5.00,0.00,29.4,28.4,00.0,38.4,31.1,07.9,0000.0,0004.62,0000.72,0000.29
2021-12-02 12:26:00,,0828.2,5.01,0.00,29.4,28.4,00.0,38.4,31.1,07.9,0000.0,0004.65,0000.70,0000.29
2021-12-02 12:27:00,,0828.2,4.99,0.00,29.4,28.4,00.0,38.4,31.1,07.9,0000.0,0004.71,0000.72,0000.30
2021-12-02 12:28:00,,0828.2,5.00,0.00,29.4,28.4,00.0,38.4,31.1,07.9,0000.0,0005.14,0000.76,0000.30
2021-12-02 12:29:00,,0828.2,5.00,0.00,29.4,28.4,00.0,38.4,31.1,08.0,0000.0,0005.04,0000.79,0000.31
2021-12-02 12:30:00,,0828.2,4.99,0.00,29.4,28.4,00.0,38.4,31.1,08.0,0000.0,0005.37,0000.91,0000.32
2021-12-02 12:31:00,,0828.2,5.02,0.00,29.4,28.4,00.0,38.4,31.1,08.0,0000.0,0005.80,0001.03,0000.32
2021-12-02 12:32:00,,0828.2,5.00,0.00,29.3,28.4,00.0,38.4,31.1,08.0,0000.0,0005.52,0001.06,0000.34
2021-12-02 12:33:00,,0828.3,5.00,0.00,29.3,28.4,00.0,38.3,31.0,08.0,0000.0,0005.58,0001.12,0000.34
2021-12-02 12:34:00,,0828.2,4.99,0.00,29.3,28.4,00.0,38.3,31.0,08.0,0000.0,0005.79,0001.15,0000.33
2021-12-02 12:35:00,,0828.3,5.01,0.00,29.3,28.4,00.0,38.3,31.0,08.1,0000.0,0004.90,0001.15,0000.34
2021-12-02 12:36:00,,0828.2,4.98,0.00,29.3,28.3,00.0,38.3,31.0,08.0,0000.0,0005.68,0001.17,0000.34
2021-12-02 12:37:00,,0828.3,5.02,0.00,29.3,28.3,00.0,38.3,31.0,07.9,0000.0,0005.86,0001.23,0000.35
2021-12-02 12:38:00,,0828.4,4.98,0.00,29.3,28.3,00.0,38.3,31.0,07.8,0000.0,0005.87,0001.27,0000.35
2021-12-02 12:39:00,,0828.2,4.99,0.00,29.3,28.3,00.0,38.3,31.0,07.9,0000.0,0005.64,0001.30,0000.35
2021-12-02 12:40:00,,0828.2,5.01,0.00,29.3,28.3,00.0,38.3,31.0,08.0,0000.0,0006.55,0001.37,0000.36
2021-12-02 12:41:00,,0828.2,5.00,0.00,29.3,28.3,00.0,38.3,31.0,08.0,0000.0,0006.41,0001.29,0000.36
2021-12-02 12:42:00,,0828.2,5.00,0.00,29.3,28.3,00.0,38.3,31.0,08.1,0000.0,0006.63,0001.16,0000.36
2021-12-02 12:43:00,,0828.2,5.00,0.00,29.3,28.3,00.0,38.3,31.0,08.1,0000.0,0006.82,0001.15,0000.35
2021-12-02 12:44:00,,0828.2,5.00,0.00,29.3,28.3,00.0,38.3,31.0,08.1,0000.0,0006.77,0001.11,0000.35
2021-12-02 12:45:00,,0828.2,5.00,0.00,29.3,28.4,00.0,38.3,31.0,08.1,0000.0,0007.40,0001.13,0000.36
2021-12-02 12:46:00,,0828.3,4.99,0.00,29.3,28.4,00.0,38.3,31.0,08.1,0000.0,0007.44,0001.14,0000.35
2021-12-02 12:47:00,,0828.2,4.98,0.00,29.3,28.3,00.0,38.3,31.0,08.1,0000.0,0006.80,0001.13,0000.36
2021-12-02 12:48:00,,0828.2,5.02,0.00,29.3,28.3,00.0,38.3,31.0,08.1,0000.0,0007.10,0001.14,0000.35
2021-12-02 12:49:00,,0828.2,4.99,0.00,29.3,28.3,00.0,38.3,31.0,08.1,0000.0,0007.06,0001.16,0000.35
2021-12-02 12:50:00,,0828.2,5.02,0.00,29.3,28.3,00.0,38.3,31.0,08.1,0000.0,0006.94,0001.15,0000.36
2021-12-02 12:51:00,,0828.2,4.98,0.00,29.3,28.3,00.0,38.3,31.0,08.1,0000.0,0006.11,0001.14,0000.36
2021-12-02 12:52:00,,0828.2,5.01,0.00,29.3,28.3,00.0,38.3,31.0,08.1,0000.0,0006.62,0001.24,0000.36
2021-12-02 12:53:00,,0828.3,5.00,0.00,29.3,28.3,00.0,38.3,31.0,08.1,0000.0,0006.54,0001.28,0000.36
2021-12-02 12:54:00,,0828.2,5.01,0.00,29.3,28.3,00.0,38.3,31.0,08.1,0000.0,0005.82,0001.29,0000.36
2021-12-02 12:55:00,,0828.3,5.00,0.00,29.3,28.3,00.0,38.3,31.0,08.1,0000.0,0006.19,0001.30,0000.36
2021-12-02 12:56:00,,0828.3,4.98,0.00,29.3,28.3,00.0,38.3,31.0,08.1,0000.0,0005.68,0001.29,0000.35
2021-12-02 12:57:00,,0828.3,5.01,0.00,29.3,28.3,00.0,38.3,31.0,08.1,0000.0,0005.62,0001.26,0000.34
2021-12-02 12:58:00,,0828.3,4.99,0.00,29.3,28.3,00.0,38.3,31.0,08.1,0000.0,0005.10,0001.28,0000.34
2021-12-02 12:59:00,,0828.3,4.99,0.00,29.3,28.3,00.0,38.3,31.0,08.1,0000.0,0004.47,0001.23,0000.35
